| time (UTC) | temp F | wind direction | speed MPH | gust MPH | rain 1hr in | rain 24hr in | rain mn in | humidity % | barometer mb |
| 20260904075803 | 74 | 0.0 | 0.0 | 0.00 | 0.00 | 0.00 | 69 | ||
| 20260904075247 | 74 | 0.0 | 0.0 | 0.00 | 0.00 | 0.00 | 69 | ||
| 20260904074735 | 74 | 0.0 | 0.0 | 0.00 | 0.00 | 0.00 | 69 | ||
| 20260904074219 | 74 | 0.0 | 0.0 | 0.00 | 0.00 | 0.00 | 69 | ||
| 20260904073703 | 74 | 0.0 | 0.0 | 0.00 | 0.00 | 0.00 | 68 | ||
| 20260904073147 | 74 | 0.0 | 0.0 | 0.00 | 0.00 | 0.00 | 68 | ||
| 20260904072631 | 74 | 0.0 | 0.0 | 0.00 | 0.00 | 0.00 | 68 | ||
| 20260904072115 | 74 | 0.0 | 0.0 | 0.00 | 0.00 | 0.00 | 68 | ||
| 20260904071602 | 73 | 0.0 | 0.0 | 0.00 | 0.00 | 0.00 | 69 | ||
| 20260904071049 | 73 | 0.0 | 0.0 | 0.00 | 0.00 | 0.00 | 71 | ||
| 20260904070521 | 72 | 0.0 | 0.0 | 0.00 | 0.00 | 0.00 | 73 | ||
| 20260904070005 | 68 | 0.0 | 0.0 | 0.00 | 0.00 | 0.00 | 82 | ||
| 20260904065452 | 66 | 0.0 | 0.0 | 0.00 | 0.00 | 0.00 | 83 | ||
| 20260904064936 | 66 | 0.0 | 0.0 | 0.00 | 0.00 | 0.00 | 82 | ||
| 20260904064420 | 66 | 0.0 | 0.0 | 0.00 | 0.00 | 0.00 | 81 | ||
| 20260904063905 | 66 | 0.0 | 0.0 | 0.00 | 0.00 | 0.00 | 82 | ||
| 20260904063349 | 66 | 0.0 | 0.0 | 0.00 | 0.00 | 0.00 | 80 | ||
| 20260904062833 | 66 | 0.0 | 0.0 | 0.00 | 0.00 | 0.00 | 82 | ||
| 20260904062320 | 64 | 0.0 | 0.0 | 0.00 | 0.00 | 0.00 | 82 | ||
| 20260904061804 | 67 | 0.0 | 0.0 | 0.00 | 0.00 | 0.00 | 71 | ||
| 20260904061248 | 77 | 0.0 | 0.0 | 0.00 | 0.00 | 0.00 | 83 | ||
| 20260904060732 | 77 | 0.0 | 0.0 | 0.00 | 0.00 | 0.00 | 83 | ||
| 20260904060216 | 77 | 0.0 | 0.0 | 0.00 | 0.00 | 0.00 | 83 | ||
| 20260904055700 | 77 | 0.0 | 0.0 | 0.00 | 0.00 | 0.00 | 83 | ||
| 20260904055147 | 77 | 0.0 | 0.0 | 0.00 | 0.00 | 0.00 | 83 | ||
| 20260904054631 | 77 | 0.0 | 0.0 | 0.00 | 0.00 | 0.00 | 83 | ||
| 20260904054115 | 77 | 0.0 | 0.0 | 0.00 | 0.00 | 0.00 | 83 | ||
| 20260904053559 | 77 | 0.0 | 0.0 | 0.00 | 0.00 | 0.00 | 82 | ||
| 20260904053044 | 78 | 0.0 | 0.0 | 0.00 | 0.00 | 0.00 | 82 | ||
| 20260904052528 | 77 | 0.0 | 0.0 | 0.00 | 0.00 | 0.00 | 82 | ||
| 20260904052015 | 77 | 0.0 | 0.0 | 0.00 | 0.00 | 0.00 | 82 | ||
| 20260904051459 | 78 | 0.0 | 0.0 | 0.00 | 0.00 | 0.00 | 82 | ||
| 20260904050943 | 78 | 0.0 | 0.0 | 0.00 | 0.00 | 0.00 | 82 | ||
| 20260904050427 | 78 | 0.0 | 0.0 | 0.00 | 0.00 | 0.00 | 83 | ||
| 20260904045911 | 78 | 0.0 | 0.0 | 0.00 | 0.00 | 0.00 | 83 | ||
| 20260904045355 | 78 | 0.0 | 0.0 | 0.00 | 0.00 | 0.00 | 84 | ||
| 20260904044842 | 78 | 0.0 | 0.0 | 0.00 | 0.00 | 0.00 | 85 | ||
| 20260904044326 | 78 | 0.0 | 0.0 | 0.00 | 0.00 | 0.00 | 86 | ||
| 20260904043810 | 78 | 0.0 | 0.0 | 0.00 | 0.00 | 0.00 | 86 | ||
| 20260904043254 | 78 | 0.0 | 0.0 | 0.00 | 0.00 | 0.00 | 87 | ||
| 20260904042738 | 78 | 0.0 | 0.0 | 0.00 | 0.00 | 0.00 | 87 | ||
| 20260904042223 | 78 | 0.0 | 0.0 | 0.00 | 0.00 | 0.00 | 88 | ||
| 20260904041710 | 78 | 0.0 | 0.0 | 0.00 | 0.00 | 0.00 | 90 | ||
| 20260904041157 | 78 | 0.0 | 0.0 | 0.00 | 0.00 | 0.00 | 90 | ||
| 20260904040629 | 78 | 0.0 | 0.0 | 0.00 | 0.00 | 0.00 | 90 | ||
| 20260904040113 | 78 | 0.0 | 0.0 | 0.00 | 0.00 | 0.00 | 90 | ||
| 20260904035600 | 78 | 0.0 | 0.0 | 0.00 | 0.00 | 0.00 | 90 | ||
| 20260904035044 | 78 | 0.0 | 0.0 | 0.00 | 0.00 | 0.00 | 90 | ||
| 20260904034528 | 78 | 0.0 | 0.0 | 0.00 | 0.00 | 0.00 | 90 | ||
| 20260904034012 | 78 | 0.0 | 0.0 | 0.00 | 0.00 | 0.00 | 90 | ||
| 20260904033456 | 78 | 0.0 | 0.0 | 0.00 | 0.00 | 0.00 | 90 | ||
| 20260904032940 | 78 | 0.0 | 0.0 | 0.00 | 0.00 | 0.00 | 91 | ||
| 20260904032427 | 78 | 0.0 | 0.0 | 0.00 | 0.00 | 0.00 | 91 | ||
| 20260904031911 | 78 | 0.0 | 0.0 | 0.00 | 0.00 | 0.00 | 91 | ||
| 20260904031356 | 78 | 0.0 | 0.0 | 0.00 | 0.00 | 0.00 | 91 | ||
| 20260904030840 | 78 | 0.0 | 0.0 | 0.00 | 0.00 | 0.00 | 90 | ||
| 20260904030324 | 78 | 0.0 | 0.0 | 0.00 | 0.00 | 0.00 | 90 | ||
| 20260904025808 | 78 | 0.0 | 0.0 | 0.00 | 0.00 | 0.00 | 91 | ||
| 20260904025255 | 78 | 0.0 | 0.0 | 0.00 | 0.00 | 0.00 | 91 | ||
| 20260904024739 | 78 | 0.0 | 0.0 | 0.00 | 0.00 | 0.00 | 91 | ||
| 20260904024223 | 78 | 0.0 | 0.0 | 0.00 | 0.00 | 0.00 | 91 | ||
| 20260904023707 | 78 | 0.0 | 0.0 | 0.00 | 0.00 | 0.00 | 90 | ||
| 20260904023151 | 78 | 0.0 | 0.0 | 0.00 | 0.00 | 0.00 | 91 | ||
| 20260904022635 | 78 | 0.0 | 0.0 | 0.00 | 0.00 | 0.00 | 91 | ||
| 20260904022122 | 78 | 0.0 | 0.0 | 0.00 | 0.00 | 0.00 | 91 | ||
| 20260904021606 | 78 | 0.0 | 0.0 | 0.00 | 0.00 | 0.00 | 91 | ||
| 20260904021050 | 78 | 0.0 | 0.0 | 0.00 | 0.00 | 0.00 | 91 | ||
| 20260904020535 | 78 | 0.0 | 0.0 | 0.00 | 0.00 | 0.00 | 90 | ||
| 20260904020019 | 78 | 0.0 | 0.0 | 0.00 | 0.00 | 0.00 | 90 | ||
| 20260904015503 | 78 | 0.0 | 0.0 | 0.00 | 0.00 | 0.00 | 90 | ||
| 20260904014950 | 78 | 0.0 | 0.0 | 0.00 | 0.00 | 0.00 | 90 | ||
| 20260904014434 | 78 | 0.0 | 0.0 | 0.00 | 0.00 | 0.00 | 90 | ||
| 20260904013918 | 78 | 0.0 | 0.0 | 0.00 | 0.00 | 0.00 | 90 | ||
| 20260904013402 | 78 | 0.0 | 0.0 | 0.00 | 0.00 | 0.00 | 90 | ||
| 20260904012846 | 78 | 0.0 | 0.0 | 0.00 | 0.00 | 0.00 | 90 | ||
| 20260904012330 | 78 | 0.0 | 0.0 | 0.00 | 0.00 | 0.00 | 90 | ||
| 20260904011817 | 78 | 0.0 | 0.0 | 0.00 | 0.00 | 0.00 | 90 | ||
| 20260904011304 | 78 | 0.0 | 0.0 | 0.00 | 0.00 | 0.00 | 90 | ||
| 20260904010736 | 78 | 0.0 | 0.0 | 0.00 | 0.00 | 0.00 | 90 | ||
| 20260904010220 | 78 | 0.0 | 0.0 | 0.00 | 0.00 | 0.00 | 89 | ||
| 20260904005708 | 78 | 0.0 | 0.0 | 0.00 | 0.00 | 0.00 | 89 | ||
| 20260904005152 | 78 | 0.0 | 0.0 | 0.00 | 0.00 | 0.00 | 89 | ||
| 20260904004636 | 78 | 0.0 | 0.0 | 0.00 | 0.00 | 0.00 | 88 | ||
| 20260904004120 | 78 | 0.0 | 0.0 | 0.00 | 0.00 | 0.00 | 88 | ||
| 20260904003604 | 78 | 0.0 | 0.0 | 0.00 | 0.00 | 0.00 | 88 | ||
| 20260904003048 | 78 | 0.0 | 0.0 | 0.00 | 0.00 | 0.00 | 88 | ||
| 20260904002535 | 78 | 0.0 | 0.0 | 0.00 | 0.00 | 0.00 | 88 | ||
| 20260904002019 | 78 | 0.0 | 0.0 | 0.00 | 0.00 | 0.00 | 88 | ||
| 20260904001503 | 78 | 0.0 | 0.0 | 0.00 | 0.00 | 0.00 | 88 | ||
| 20260904000947 | 78 | 0.0 | 0.0 | 0.00 | 0.00 | 0.00 | 88 | ||
| 20260904000432 | 78 | 0.0 | 0.0 | 0.00 | 0.00 | 0.00 | 88 | ||
| 20260903235915 | 78 | 0.0 | 0.0 | 0.00 | 0.00 | 0.00 | 88 | ||
| 20260903235402 | 78 | 0.0 | 0.0 | 0.00 | 0.00 | 0.00 | 87 | ||
| 20260903234846 | 78 | 0.0 | 0.0 | 0.00 | 0.00 | 0.00 | 83 | ||
| 20260903234331 | 78 | 0.0 | 0.0 | 0.00 | 0.00 | 0.00 | 88 | ||
| 20260903233815 | 78 | 0.0 | 0.0 | 0.00 | 0.00 | 0.00 | 88 | ||
| 20260903233259 | 78 | 0.0 | 0.0 | 0.00 | 0.00 | 0.00 | 88 | ||
| 20260903232743 | 78 | 0.0 | 0.0 | 0.00 | 0.00 | 0.00 | 87 | ||
| 20260903232230 | 78 | 0.0 | 0.0 | 0.00 | 0.00 | 0.00 | 87 | ||
| 20260903231714 | 78 | 0.0 | 0.0 | 0.00 | 0.00 | 0.00 | 87 | ||
| 20260903231158 | 78 | 0.0 | 0.0 | 0.00 | 0.00 | 0.00 | 87 | ||
| 20260903230642 | 78 | 0.0 | 0.0 | 0.00 | 0.00 | 0.00 | 86 | ||
| 20260903230126 | 78 | 0.0 | 0.0 | 0.00 | 0.00 | 0.00 | 86 | ||
| 20260903225610 | 78 | 0.0 | 0.0 | 0.00 | 0.00 | 0.00 | 86 | ||
| 20260903225057 | 78 | 0.0 | 0.0 | 0.00 | 0.00 | 0.00 | 86 | ||
| 20260903224541 | 78 | 0.0 | 0.0 | 0.00 | 0.00 | 0.00 | 86 | ||
| 20260903224025 | 78 | 0.0 | 0.0 | 0.00 | 0.00 | 0.00 | 86 | ||
| 20260903223510 | 78 | 0.0 | 0.0 | 0.00 | 0.00 | 0.00 | 86 | ||
| 20260903222954 | 78 | 0.0 | 0.0 | 0.00 | 0.00 | 0.00 | 85 | ||
| 20260903222438 | 78 | 0.0 | 0.0 | 0.00 | 0.00 | 0.00 | 85 | ||
| 20260903221925 | 78 | 0.0 | 0.0 | 0.00 | 0.00 | 0.00 | 85 | ||
| 20260903221412 | 78 | 0.0 | 0.0 | 0.00 | 0.00 | 0.00 | 83 | ||
| 20260903220844 | 78 | 0.0 | 0.0 | 0.00 | 0.00 | 0.00 | 86 | ||
| 20260903220328 | 78 | 0.0 | 0.0 | 0.00 | 0.00 | 0.00 | 86 | ||
| 20260903215815 | 78 | 0.0 | 0.0 | 0.00 | 0.00 | 0.00 | 86 | ||
| 20260903215259 | 78 | 0.0 | 0.0 | 0.00 | 0.00 | 0.00 | 86 | ||
| 20260903214743 | 78 | 0.0 | 0.0 | 0.00 | 0.00 | 0.00 | 86 | ||
| 20260903214227 | 78 | 0.0 | 0.0 | 0.00 | 0.00 | 0.00 | 86 | ||
| 20260903213711 | 78 | 0.0 | 0.0 | 0.00 | 0.00 | 0.00 | 86 | ||
| 20260903213155 | 78 | 0.0 | 0.0 | 0.00 | 0.00 | 0.00 | 86 | ||
| 20260903212643 | 78 | 0.0 | 0.0 | 0.00 | 0.00 | 0.00 | 84 | ||
| 20260903212127 | 78 | 0.0 | 0.0 | 0.00 | 0.00 | 0.00 | 86 | ||
| 20260903211611 | 78 | 0.0 | 0.0 | 0.00 | 0.00 | 0.00 | 86 | ||
| 20260903211055 | 78 | 0.0 | 0.0 | 0.00 | 0.00 | 0.00 | 86 | ||
| 20260903210539 | 78 | 0.0 | 0.0 | 0.00 | 0.00 | 0.00 | 86 | ||
| 20260903210023 | 78 | 0.0 | 0.0 | 0.00 | 0.00 | 0.00 | 86 | ||
| 20260903205510 | 78 | 0.0 | 0.0 | 0.00 | 0.00 | 0.00 | 86 | ||
| 20260903204954 | 78 | 0.0 | 0.0 | 0.00 | 0.00 | 0.00 | 86 | ||
| 20260903204438 | 77 | 0.0 | 0.0 | 0.00 | 0.00 | 0.00 | 86 | ||
| 20260903203922 | 77 | 0.0 | 0.0 | 0.00 | 0.00 | 0.00 | 85 | ||
| 20260903203406 | 77 | 0.0 | 0.0 | 0.00 | 0.00 | 0.00 | 86 | ||
| 20260903202850 | 77 | 0.0 | 0.0 | 0.00 | 0.00 | 0.00 | 86 | ||
| 20260903202337 | 77 | 0.0 | 0.0 | 0.00 | 0.00 | 0.00 | 86 | ||
| 20260903201821 | 77 | 0.0 | 0.0 | 0.00 | 0.00 | 0.00 | 86 | ||
| 20260903201305 | 77 | 0.0 | 0.0 | 0.00 | 0.00 | 0.00 | 86 | ||
| 20260903200750 | 77 | 0.0 | 0.0 | 0.00 | 0.00 | 0.00 | 85 | ||
| 20260903200234 | 77 | 0.0 | 0.0 | 0.00 | 0.00 | 0.00 | 85 | ||
| 20260903195718 | 77 | 0.0 | 0.0 | 0.00 | 0.00 | 0.00 | 84 | ||
| 20260903195205 | 77 | 0.0 | 0.0 | 0.00 | 0.00 | 0.00 | 83 | ||
| 20260903194649 | 77 | 0.0 | 0.0 | 0.00 | 0.00 | 0.00 | 83 | ||
| 20260903194133 | 77 | 0.0 | 0.0 | 0.00 | 0.00 | 0.00 | 83 | ||
| 20260903193617 | 77 | 0.0 | 0.0 | 0.00 | 0.00 | 0.00 | 83 | ||
| 20260903193101 | 77 | 0.0 | 0.0 | 0.00 | 0.00 | 0.00 | 83 | ||
| 20260903192545 | 77 | 0.0 | 0.0 | 0.00 | 0.00 | 0.00 | 82 | ||
| 20260903192032 | 77 | 0.0 | 0.0 | 0.00 | 0.00 | 0.00 | 82 | ||
| 20260903191519 | 77 | 0.0 | 0.0 | 0.00 | 0.00 | 0.00 | 82 | ||
| 20260903190951 | 77 | 0.0 | 0.0 | 0.00 | 0.00 | 0.00 | 81 | ||
| 20260903190436 | 76 | 0.0 | 0.0 | 0.00 | 0.00 | 0.00 | 82 | ||
| 20260903185923 | 76 | 0.0 | 0.0 | 0.00 | 0.00 | 0.00 | 83 | ||
| 20260903185407 | 76 | 0.0 | 0.0 | 0.00 | 0.00 | 0.00 | 83 | ||
| 20260903184851 | 76 | 0.0 | 0.0 | 0.00 | 0.00 | 0.00 | 83 | ||
| 20260903184335 | 76 | 0.0 | 0.0 | 0.00 | 0.00 | 0.00 | 83 | ||
| 20260903183819 | 76 | 0.0 | 0.0 | 0.00 | 0.00 | 0.00 | 83 | ||
| 20260903183303 | 76 | 0.0 | 0.0 | 0.00 | 0.00 | 0.00 | 83 | ||
| 20260903182750 | 76 | 0.0 | 0.0 | 0.00 | 0.00 | 0.00 | 83 | ||
| 20260903182234 | 76 | 0.0 | 0.0 | 0.00 | 0.00 | 0.00 | 83 | ||
| 20260903181718 | 76 | 0.0 | 0.0 | 0.00 | 0.00 | 0.00 | 82 | ||
| 20260903181202 | 76 | 0.0 | 0.0 | 0.00 | 0.00 | 0.00 | 83 | ||
| 20260903180646 | 76 | 0.0 | 0.0 | 0.00 | 0.00 | 0.00 | 83 | ||
| 20260903180130 | 76 | 0.0 | 0.0 | 0.00 | 0.00 | 0.00 | 83 | ||
| 20260903175617 | 76 | 0.0 | 0.0 | 0.00 | 0.00 | 0.00 | 83 | ||
| 20260903175102 | 76 | 0.0 | 0.0 | 0.00 | 0.00 | 0.00 | 83 | ||
| 20260903174546 | 76 | 0.0 | 0.0 | 0.00 | 0.00 | 0.00 | 83 | ||
| 20260903174030 | 76 | 0.0 | 0.0 | 0.00 | 0.00 | 0.00 | 83 | ||
| 20260903173514 | 76 | 0.0 | 0.0 | 0.00 | 0.00 | 0.00 | 83 | ||
| 20260903172958 | 76 | 0.0 | 0.0 | 0.00 | 0.00 | 0.00 | 83 | ||
| 20260903172445 | 76 | 0.0 | 0.0 | 0.00 | 0.00 | 0.00 | 83 | ||
| 20260903171929 | 76 | 0.0 | 0.0 | 0.00 | 0.00 | 0.00 | 83 | ||
| 20260903171413 | 76 | 0.0 | 0.0 | 0.00 | 0.00 | 0.00 | 83 | ||
| 20260903170857 | 76 | 0.0 | 0.0 | 0.00 | 0.00 | 0.00 | 83 | ||
| 20260903170341 | 76 | 0.0 | 0.0 | 0.00 | 0.00 | 0.00 | 82 | ||
| 20260903165825 | 76 | 0.0 | 0.0 | 0.00 | 0.00 | 0.00 | 82 | ||
| 20260903165312 | 76 | 0.0 | 0.0 | 0.00 | 0.00 | 0.00 | 82 | ||
| 20260903164756 | 76 | 0.0 | 0.0 | 0.00 | 0.00 | 0.00 | 82 | ||
| 20260903164240 | 76 | 0.0 | 0.0 | 0.00 | 0.00 | 0.00 | 82 | ||
| 20260903163725 | 76 | 0.0 | 0.0 | 0.00 | 0.00 | 0.00 | 82 | ||
| 20260903163209 | 76 | 0.0 | 0.0 | 0.00 | 0.00 | 0.00 | 82 | ||
| 20260903162653 | 76 | 0.0 | 0.0 | 0.00 | 0.00 | 0.00 | 82 | ||
| 20260903162140 | 76 | 0.0 | 0.0 | 0.00 | 0.00 | 0.00 | 82 | ||
| 20260903161627 | 76 | 0.0 | 0.0 | 0.00 | 0.00 | 0.00 | 82 | ||
| 20260903161055 | 75 | 0.0 | 0.0 | 0.00 | 0.00 | 0.00 | 82 | ||
| 20260903160542 | 75 | 0.0 | 0.0 | 0.00 | 0.00 | 0.00 | 82 | ||
| 20260903160027 | 75 | 0.0 | 0.0 | 0.00 | 0.00 | 0.00 | 83 | ||
| 20260903155511 | 75 | 0.0 | 0.0 | 0.00 | 0.00 | 0.00 | 83 | ||
| 20260903154955 | 75 | 0.0 | 0.0 | 0.00 | 0.00 | 0.00 | 83 | ||
| 20260903154439 | 75 | 0.0 | 0.0 | 0.00 | 0.00 | 0.00 | 83 | ||
| 20260903153923 | 75 | 0.0 | 0.0 | 0.00 | 0.00 | 0.00 | 83 | ||
| 20260903153410 | 75 | 0.0 | 0.0 | 0.00 | 0.00 | 0.00 | 83 | ||
| 20260903152854 | 75 | 0.0 | 0.0 | 0.00 | 0.00 | 0.00 | 83 | ||
| 20260903152338 | 75 | 0.0 | 0.0 | 0.00 | 0.00 | 0.00 | 83 | ||
| 20260903151822 | 75 | 0.0 | 0.0 | 0.00 | 0.00 | 0.00 | 83 | ||
| 20260903151306 | 75 | 0.0 | 0.0 | 0.00 | 0.00 | 0.00 | 83 | ||
| 20260903150750 | 75 | 0.0 | 0.0 | 0.00 | 0.00 | 0.00 | 82 | ||
| 20260903150237 | 75 | 0.0 | 0.0 | 0.00 | 0.00 | 0.00 | 82 | ||
| 20260903145721 | 75 | 0.0 | 0.0 | 0.00 | 0.00 | 0.00 | 82 | ||
| 20260903145206 | 75 | 0.0 | 0.0 | 0.00 | 0.00 | 0.00 | 82 | ||
| 20260903144650 | 75 | 0.0 | 0.0 | 0.00 | 0.00 | 0.00 | 82 | ||
| 20260903144134 | 75 | 0.0 | 0.0 | 0.00 | 0.00 | 0.00 | 82 | ||
| 20260903143618 | 75 | 0.0 | 0.0 | 0.00 | 0.00 | 0.00 | 82 | ||
| 20260903143105 | 75 | 0.0 | 0.0 | 0.00 | 0.00 | 0.00 | 82 | ||
| 20260903142549 | 75 | 0.0 | 0.0 | 0.00 | 0.00 | 0.00 | 82 | ||
| 20260903142033 | 75 | 0.0 | 0.0 | 0.00 | 0.00 | 0.00 | 82 | ||
| 20260903141517 | 75 | 0.0 | 0.0 | 0.00 | 0.00 | 0.00 | 82 | ||
| 20260903141001 | 75 | 0.0 | 0.0 | 0.00 | 0.00 | 0.00 | 82 | ||
| 20260903140445 | 75 | 0.0 | 0.0 | 0.00 | 0.00 | 0.00 | 82 | ||
| 20260903135932 | 75 | 0.0 | 0.0 | 0.00 | 0.00 | 0.00 | 82 | ||
| 20260903135416 | 75 | 0.0 | 0.0 | 0.00 | 0.00 | 0.00 | 82 | ||
| 20260903134900 | 75 | 0.0 | 0.0 | 0.00 | 0.00 | 0.00 | 82 | ||
| 20260903134344 | 75 | 0.0 | 0.0 | 0.00 | 0.00 | 0.00 | 82 | ||
| 20260903133829 | 75 | 0.0 | 0.0 | 0.00 | 0.00 | 0.00 | 82 | ||
| 20260903133313 | 75 | 0.0 | 0.0 | 0.00 | 0.00 | 0.00 | 82 | ||
| 20260903132800 | 75 | 0.0 | 0.0 | 0.00 | 0.00 | 0.00 | 81 | ||
| 20260903132247 | 75 | 0.0 | 0.0 | 0.00 | 0.00 | 0.00 | 81 | ||
| 20260903131719 | 75 | 0.0 | 0.0 | 0.00 | 0.00 | 0.00 | 81 | ||
| 20260903131203 | 75 | 0.0 | 0.0 | 0.00 | 0.00 | 0.00 | 81 | ||
| 20260903130650 | 75 | 0.0 | 0.0 | 0.00 | 0.00 | 0.00 | 81 | ||
| 20260903130134 | 75 | 0.0 | 0.0 | 0.00 | 0.00 | 0.00 | 81 | ||
| 20260903125618 | 75 | 0.0 | 0.0 | 0.00 | 0.00 | 0.00 | 81 | ||
| 20260903125102 | 75 | 0.0 | 0.0 | 0.00 | 0.00 | 0.00 | 81 | ||
| 20260903124546 | 75 | 0.0 | 0.0 | 0.00 | 0.00 | 0.00 | 81 | ||
| 20260903124030 | 75 | 0.0 | 0.0 | 0.00 | 0.00 | 0.00 | 81 | ||
| 20260903123517 | 75 | 0.0 | 0.0 | 0.00 | 0.00 | 0.00 | 81 | ||
| 20260903123002 | 75 | 0.0 | 0.0 | 0.00 | 0.00 | 0.00 | 81 | ||
| 20260903122446 | 75 | 0.0 | 0.0 | 0.00 | 0.00 | 0.00 | 80 | ||
| 20260903121930 | 75 | 0.0 | 0.0 | 0.00 | 0.00 | 0.00 | 80 | ||
| 20260903121414 | 75 | 0.0 | 0.0 | 0.00 | 0.00 | 0.00 | 80 | ||
| 20260903120858 | 75 | 0.0 | 0.0 | 0.00 | 0.00 | 0.00 | 80 | ||
| 20260903120345 | 75 | 0.0 | 0.0 | 0.00 | 0.00 | 0.00 | 80 | ||
| 20260903115829 | 75 | 0.0 | 0.0 | 0.00 | 0.00 | 0.00 | 79 | ||
| 20260903115313 | 75 | 0.0 | 0.0 | 0.00 | 0.00 | 0.00 | 79 | ||
| 20260903114757 | 75 | 0.0 | 0.0 | 0.00 | 0.00 | 0.00 | 78 | ||
| 20260903114241 | 75 | 0.0 | 0.0 | 0.00 | 0.00 | 0.00 | 78 | ||
| 20260903113725 | 75 | 0.0 | 0.0 | 0.00 | 0.00 | 0.00 | 78 | ||
| 20260903113212 | 75 | 0.0 | 0.0 | 0.00 | 0.00 | 0.00 | 78 | ||
| 20260903112656 | 75 | 0.0 | 0.0 | 0.00 | 0.00 | 0.00 | 78 | ||
| 20260903112140 | 75 | 0.0 | 0.0 | 0.00 | 0.00 | 0.00 | 78 | ||
| 20260903111624 | 75 | 0.0 | 0.0 | 0.00 | 0.00 | 0.00 | 78 | ||
| 20260903111108 | 75 | 0.0 | 0.0 | 0.00 | 0.00 | 0.00 | 78 | ||
| 20260903110553 | 75 | 0.0 | 0.0 | 0.00 | 0.00 | 0.00 | 78 | ||
| 20260903110040 | 75 | 0.0 | 0.0 | 0.00 | 0.00 | 0.00 | 78 | ||
| 20260903105524 | 75 | 0.0 | 0.0 | 0.00 | 0.00 | 0.00 | 78 | ||
| 20260903105008 | 75 | 0.0 | 0.0 | 0.00 | 0.00 | 0.00 | 78 | ||
| 20260903104452 | 75 | 0.0 | 0.0 | 0.00 | 0.00 | 0.00 | 79 | ||
| 20260903103936 | 75 | 0.0 | 0.0 | 0.00 | 0.00 | 0.00 | 79 | ||
| 20260903103420 | 75 | 0.0 | 0.0 | 0.00 | 0.00 | 0.00 | 79 | ||
| 20260903102907 | 75 | 0.0 | 0.0 | 0.00 | 0.00 | 0.00 | 78 | ||
| 20260903102354 | 75 | 0.0 | 0.0 | 0.00 | 0.00 | 0.00 | 78 | ||
| 20260903101826 | 75 | 0.0 | 0.0 | 0.00 | 0.00 | 0.00 | 78 | ||
| 20260903101313 | 75 | 0.0 | 0.0 | 0.00 | 0.00 | 0.00 | 79 | ||
| 20260903100757 | 75 | 0.0 | 0.0 | 0.00 | 0.00 | 0.00 | 78 | ||
| 20260903100241 | 75 | 0.0 | 0.0 | 0.00 | 0.00 | 0.00 | 78 | ||
| 20260903095725 | 75 | 0.0 | 0.0 | 0.00 | 0.00 | 0.00 | 78 | ||
| 20260903095209 | 75 | 0.0 | 0.0 | 0.00 | 0.00 | 0.00 | 78 | ||
| 20260903094653 | 75 | 0.0 | 0.0 | 0.00 | 0.00 | 0.00 | 79 | ||
| 20260903094140 | 75 | 0.0 | 0.0 | 0.00 | 0.00 | 0.00 | 78 | ||
| 20260903093624 | 75 | 0.0 | 0.0 | 0.00 | 0.00 | 0.00 | 78 | ||
| 20260903093108 | 75 | 0.0 | 0.0 | 0.00 | 0.00 | 0.00 | 78 | ||
| 20260903092549 | 75 | 0.0 | 0.0 | 0.00 | 0.00 | 0.00 | 78 | ||
| 20260903092034 | 75 | 0.0 | 0.0 | 0.00 | 0.00 | 0.00 | 78 | ||
| 20260903091518 | 75 | 0.0 | 0.0 | 0.00 | 0.00 | 0.00 | 78 | ||
| 20260903091005 | 75 | 0.0 | 0.0 | 0.00 | 0.00 | 0.00 | 79 | ||
| 20260903090449 | 75 | 0.0 | 0.0 | 0.00 | 0.00 | 0.00 | 78 | ||
| 20260903085933 | 75 | 0.0 | 0.0 | 0.00 | 0.00 | 0.00 | 79 | ||
| 20260903085417 | 75 | 0.0 | 0.0 | 0.00 | 0.00 | 0.00 | 79 | ||
| 20260903084901 | 75 | 0.0 | 0.0 | 0.00 | 0.00 | 0.00 | 79 | ||
| 20260903084345 | 74 | 0.0 | 0.0 | 0.00 | 0.00 | 0.00 | 79 | ||
| 20260903083832 | 75 | 0.0 | 0.0 | 0.00 | 0.00 | 0.00 | 78 | ||
| 20260903083316 | 75 | 0.0 | 0.0 | 0.00 | 0.00 | 0.00 | 78 | ||
| 20260903082800 | 75 | 0.0 | 0.0 | 0.00 | 0.00 | 0.00 | 78 | ||
| 20260903082244 | 74 | 0.0 | 0.0 | 0.00 | 0.00 | 0.00 | 78 | ||
| 20260903081728 | 74 | 0.0 | 0.0 | 0.00 | 0.00 | 0.00 | 77 | ||
| 20260903081213 | 74 | 0.0 | 0.0 | 0.00 | 0.00 | 0.00 | 77 | ||
| 20260903080700 | 74 | 0.0 | 0.0 | 0.00 | 0.00 | 0.00 | 77 | ||
| 20260903080144 | 74 | 0.0 | 0.0 | 0.00 | 0.00 | 0.00 | 77 |